SCP
0 0 0 0 0 0 0 0 0 0 0 0 0 0 0 1 1 1 1 1 1 1 1 1 1 1 1 1 1 1 1 1 1 0 0 0 0 0 0 0 0 0 0 0
0 0 0 0 0 0 0 0 0 0 0 0 0 0 0 1 1 1 1 1 1 1 1 1 1 1 1 1 1 1 1 1 1 1 0 0 0 0 0 0 0 0 0 0
0 0 0 0 0 0 0 0 0 0 0 0 0 0 0 1 1 1 1 1 1 1 1 1 1 1 1 1 1 1 1 1 1 1 1 1 1 1 1 0 0 0 0 0
0 0 0 0 0 0 0 0 0 0 0 0 0 0 0 1 1 1 1 1 1 1 1 1 1 1 1 1 1 1 1 1 1 1 1 1 1 1 1 1 1 0 0 0
0 0 0 0 0 0 0 0 0 0 0 0 0 0 0 1 1 1 1 1 1 1 1 1 1 1 1 1 1 1 1 1 1 1 1 1 1 1 1 1 1 0 0 0
0 0 0 0 0 0 0 0 0 0 0 0 0 0 1 1 1 1 1 1 1 1 1 1 1 1 1 1 1 1 1 1 1 1 1 1 1 1 1 1 0 0 0 0
0 0 0 0 0 0 0 0 0 0 1 1 1 1 1 1 1 1 1 1 1 1 1 1 1 1 1 1 1 1 1 1 1 1 1 1 1 1 1 0 0 0 0 0
0 0 0 0 0 0 0 0 0 1 1 1 1 1 1 1 1 1 1 1 1 1 1 1 1 1 1 1 1 1 1 1 1 1 1 1 1 0 0 0 0 0 0 0
0 0 0 0 0 0 0 0 0 0 0 1 1 1 1 1 1 1 1 1 1 1 1 1 1 1 1 1 1 1 1 1 1 1 0 0 0 0 0 0 0 0 0 0
0 0 0 0 0 0 0 0 0 0 0 0 0 1 1 1 1 1 1 1 1 1 1 1 1 1 1 1 1 1 1 1 1 1 0 0 0 0 0 0 0 0 0 0
0 0 0 0 0 0 0 0 0 0 0 0 0 0 1 1 1 1 1 1 1 1 1 1 1 1 1 1 1 1 1 1 1 0 0 0 0 0 0 0 0 0 0 0
0 0 0 0 0 0 0 0 0 0 0 0 0 0 0 1 1 1 1 1 1 1 1 1 1 1 1 1 1 1 1 0 0 0 0 0 0 0 0 0 0 0 0 0
0 0 0 0 0 0 0 0 0 0 0 0 0 0 0 1 1 1 1 1 1 1 1 1 1 0 0 0 0 0 0 0 0 0 0 0 0 0 0 0 0 0 0 0
0 0 0 0 0 0 0 0 0 0 0 0 0 0 0 1 1 1 1 1 1 1 1 0 0 0 0 0 0 0 0 0 0 0 0 0 0 0 0 0 0 0 0 0
0 0 0 0 0 0 0 0 0 0 0 0 0 0 0 0 0 1 1 1 1 1 0 0 0 0 0 0 0 0 0 0 0 0 0 0 0 0 0 0 0 0 0 0
0 0 0 0 0 0 0 0 0 0 0 0 0 0 0 0 0 0 0 0 0 0 0 0 0 0 0 0 0 0 0 0 0 0 0 0 0 0 0 0 0 0 0 0
0 0 0 0 0 0 0 0 0 0 0 0 0 0 0 0 0 0 0 0 0 0 0 0 0 0 0 0 0 0 0 0 0 0 0 0 0 0 0 0 0 0 0 0
0 0 0 0 0 0 0 0 0 0 0 0 0 0 0 0 0 0 0 0 0 0 0 0 0 0 0 0 0 0 0 0 0 0 0 0 0 0 0 0 0 0 0 0
0 0 0 0 0 0 0 0 0 0 0 0 0 0 0 0 0 0 0 0 0 0 0 0 0 0 0 0 0 0 0 0 0 0 0 0 0 0 0 0 0 0 0 0
0 0 0 0 0 0 0 0 0 0 0 0 0 0 0 0 0 0 0 0 0 0 0 0 0 0 0 0 0 0 0 0 0 0 0 0 0 0 0 0 0 0 0 0
0 0 0 0 0 0 0 0 0 0 0 0 0 0 0 0 0 0 0 0 0 0 0 0 0 0 0 0 0 0 0 0 0 0 0 0 0 0 0 0 0 0 0 0
0 0 0 0 0 0 0 0 0 0 0 0 0 0 0 0 0 0 0 0 0 0 0 0 0 0 0 0 0 0 0 0 0 0 0 0 0 0 0 0 0 0 0 0
0 0 0 0 0 0 0 0 0 0 0 0 0 0 0 0 0 0 0 0 0 0 0 0 0 0 0 0 0 0 0 0 0 0 0 0 0 0 0 0 0 0 0 0
0 0 0 0 0 0 0 0 0 0 0 0 0 0 0 0 0 0 0 0 0 0 0 0 0 0 0 0 0 0 0 0 0 0 0 0 0 0 0 0 0 0 0 0
0 0 0 0 0 0 0 0 0 0 0 0 0 0 0 0 0 0 0 0 0 0 0 0 0 0 0 0 0 0 0 0 0 0 0 0 0 0 0 0 0 0 0 0
0 0 0 0 0 0 0 0 0 0 0 0 0 0 0 0 0 0 0 0 0 0 0 0 0 0 0 0 0 0 0 0 0 0 0 0 0 0 0 0 0 0 0 0
0 0 0 0 0 0 0 0 0 0 0 0 0 0 0 0 0 0 0 0 0 0 0 0 0 0 0 0 0 0 0 0 0 0 0 0 0 0 0 0 0 0 0 0
Wind_Speed
8 6 6 8 9 9 11 10 10 6 5 3 2 1 1 2 3 4 4 5 6 6 6 7 6 6 6 5 5 5 5 4 4 4 3 3 2 2 1 1 1 1 1 1
9 8 9 10 9 9 9 9 9 8 5 2 1 1 1 2 3 3 4 4 4 5 6 6 6 6 5 5 5 5 4 4 4 3 3 3 2 2 1 1 1 1 2 2
9 7 10 11 9 9 8 7 8 7 2 0 1 1 1 2 2 2 2 3 4 4 5 5 6 6 6 5 5 5 4 4 4 3 3 3 3 2 2 2 1 1 1 1
7 7 12 3 1 5 7 5 5 4 2 1 1 0 2 2 1 0 1 2 2 4 5 5 5 5 5 5 5 5 4 4 3 3 3 3 3 2 2 2 1 1 1 1
7 10 9 4 3 4 7 5 3 4 2 1 0 2 4 4 3 1 0 1 2 3 4 5 5 6 5 5 4 4 3 3 3 3 3 3 3 2 1 1 1 1 0 1
8 10 9 2 2 2 6 7 0 2 1 1 2 5 2 4 2 2 1 1 1 2 3 5 5 5 6 5 4 3 2 2 2 2 2 2 1 1 1 1 1 1 0 1
10 10 5 3 2 3 8 0 3 1 1 1 2 4 3 2 2 2 2 2 2 3 3 4 4 5 5 4 3 2 2 2 2 2 2 2 1 1 1 1 1 0 0 0
9 11 5 4 1 2 3 4 2 2 2 1 2 2 2 3 3 3 3 3 3 3 3 3 4 4 4 3 3 3 2 2 2 2 1 2 2 1 1 1 2 1 1 1
4 1 4 2 2 3 2 1 2 2 1 1 1 1 2 3 3 3 2 3 3 3 3 3 3 3 3 3 3 3 3 3 2 1 1 2 2 2 2 2 2 1 1 1
3 2 1 1 2 2 1 1 1 0 1 1 1 2 2 2 2 2 2 2 2 3 3 3 3 2 3 3 3 3 3 2 2 2 1 1 1 2 1 1 1 1 1 2
4 2 1 2 1 2 1 1 1 1 2 1 2 2 2 2 2 2 2 2 2 2 3 3 3 2 2 3 3 3 2 2 2 2 2 1 1 0 0 1 1 2 2 2
3 0 2 0 1 1 1 1 1 1 2 2 2 2 1 1 1 1 2 1 2 2 3 3 2 2 2 2 2 3 2 2 2 1 1 1 1 2 2 1 2 1 1 3
3 3 2 1 1 1 1 1 1 1 1 1 1 1 1 1 1 1 1 2 2 2 2 2 2 2 2 1 2 2 2 2 2 1 1 1 1 1 1 1 3 3 3 3
2 2 2 1 1 1 1 1 1 1 1 1 1 1 1 2 2 2 1 1 1 2 2 2 1 1 1 1 1 2 2 1 2 1 1 1 2 2 1 1 1 1 3 5
3 3 2 2 2 2 2 2 2 2 2 2 1 1 1 1 1 1 1 1 1 2 1 1 1 1 0 1 1 2 2 1 1 1 2 2 2 2 2 2 2 2 2 2
3 3 3 3 3 2 2 2 2 2 2 2 2 2 2 1 1 1 1 1 1 1 1 0 1 1 1 1 2 2 1 0 2 2 2 2 2 2 2 2 2 2 3 3
5 4 4 4 3 3 2 2 2 2 2 2 2 2 2 2 1 1 1 0 1 1 1 1 1 1 2 2 3 2 2 2 3 4 2 2 3 3 3 3 3 3 3 2
4 4 4 3 3 2 2 1 1 2 2 2 2 2 3 2 2 1 1 0 0 1 1 1 1 2 2 2 2 2 2 2 2 2 2 2 3 3 3 3 4 4 3 2
3 3 3 3 3 2 2 2 2 2 2 2 3 2 2 2 2 2 1 2 2 1 1 1 2 3 2 1 2 2 3 2 2 2 2 2 3 3 4 4 4 4 4 3
2 2 2 2 2 2 2 2 2 2 2 3 3 2 2 2 2 2 2 2 2 1 0 1 2 2 2 2 3 3 3 3 3 2 2 3 3 3 3 3 4 3 4 3
2 2 3 2 2 2 2 2 2 2 2 2 3 3 2 2 2 2 3 2 1 1 1 2 2 2 1 1 4 3 3 3 3 2 2 3 3 3 3 3 4 4 4 4
2 2 3 3 3 2 2 2 3 3 3 3 3 3 2 2 2 2 3 2 1 1 2 2 1 1 1 3 3 3 3 3 3 2 3 3 3 4 4 4 4 4 4 4
3 3 3 2 2 2 2 2 3 3 3 3 3 3 3 2 2 2 2 1 1 1 2 0 2 2 3 4 3 3 3 3 3 3 3 3 3 3 4 4 4 4 4 4
3 3 2 2 2 2 3 3 3 3 3 3 3 3 3 2 2 2 1 2 1 2 1 2 2 3 5 4 3 3 3 3 3 3 3 3 3 3 3 4 4 4 4 5
2 2 2 2 3 2 2 3 3 3 3 2 2 3 3 2 2 1 1 1 2 2 2 2 3 4 5 3 3 3 3 3 3 4 3 3 3 3 3 4 4 4 4 4
2 2 2 2 2 2 2 2 2 2 1 1 1 1 1 1 2 1 2 3 3 2 2 2 2 4 3 3 2 3 3 2 3 3 3 3 4 3 3 3 5 4 4 4
2 2 2 3 3 2 2 2 1 1 1 1 1 1 1 1 1 1 2 2 2 2 2 2 2 2 2 2 2 2 2 2 2 2 2 3 3 3 3 3 3 3 4 4
Wind_Direction
254 263 260 248 239 232 247 264 272 277 275 293 352 10 79 122 137 143 146 153 154 155 151 154 154 157 161 161 161 160 162 162 160 164 167 175 181 189 193 223 243 272 284 289
241 236 243 248 245 239 242 252 256 262 268 13 352 30 111 119 138 148 152 161 162 158 154 160 161 163 163 166 164 164 169 167 162 169 177 186 190 192 200 223 266 276 282 288
245 231 238 235 234 235 234 242 255 258 279 331 300 13 113 134 149 162 167 173 175 173 169 165 163 164 169 169 169 171 174 175 172 177 181 190 200 190 203 225 249 273 289 308
246 229 239 225 213 240 242 242 258 268 293 289 306 290 120 93 95 146 151 166 174 184 175 167 162 166 168 168 172 174 177 180 176 186 187 192 204 208 214 222 220 252 289 293
242 239 235 199 208 239 241 235 265 262 274 336 329 211 132 67 38 25 131 161 177 186 173 159 161 158 157 160 161 168 175 178 184 195 195 200 206 207 208 221 222 221 251 277
239 252 253 202 115 269 252 228 136 280 267 257 244 244 93 48 27 25 42 96 137 156 154 147 155 153 156 155 158 166 172 175 176 184 193 198 197 213 203 214 207 219 142 312
240 248 248 68 58 225 236 247 52 5 324 289 303 339 25 45 52 46 55 76 106 132 137 136 144 150 156 153 156 149 142 150 170 163 166 165 166 174 188 205 180 198 154 210
237 245 228 75 192 268 19 33 30 25 24 24 27 36 54 69 71 68 65 77 92 106 111 124 142 155 157 151 142 138 139 133 132 150 170 139 147 158 181 202 196 199 207 232
268 301 69 66 38 41 18 358 13 23 51 105 120 93 78 77 78 80 80 87 94 105 112 122 139 154 153 139 139 144 142 138 141 139 150 157 172 171 185 210 242 245 259 279
231 187 110 59 59 42 23 12 14 58 128 148 136 115 102 83 80 82 82 93 106 118 120 111 114 128 140 143 151 151 150 159 162 157 149 140 201 197 201 221 247 265 289 302
226 225 210 152 45 35 62 58 82 100 119 134 132 131 111 94 87 82 90 101 119 120 114 107 109 123 135 147 159 162 169 189 189 173 142 150 136 17 208 76 6 298 311 320
262 268 274 101 96 110 125 112 114 133 130 126 124 125 124 104 93 92 101 122 123 116 110 110 117 123 127 156 176 188 194 206 206 188 165 178 151 114 73 110 119 177 278 296
323 328 333 358 171 169 165 149 150 159 145 124 114 122 132 121 109 101 117 133 125 121 122 123 124 122 134 161 188 212 228 221 218 209 188 201 203 199 164 140 176 191 208 225
289 276 230 207 200 187 164 149 150 151 150 132 121 128 127 120 113 101 93 97 117 129 126 121 119 113 128 161 193 212 230 204 244 234 233 239 246 254 253 264 267 238 196 200
246 247 245 211 184 165 164 165 168 163 154 138 133 147 148 140 115 82 71 105 121 131 130 128 122 89 97 184 193 213 229 220 235 259 253 249 249 254 261 266 275 284 271 196
234 224 211 194 191 189 191 191 190 182 173 166 163 158 150 136 108 87 97 145 161 166 158 178 167 175 223 222 212 222 230 328 273 261 254 257 258 263 269 273 281 295 297 304
205 200 192 192 197 201 204 214 220 202 189 188 181 164 154 154 153 126 113 124 176 172 190 211 204 186 213 233 244 250 243 197 221 251 255 267 270 269 277 279 281 281 286 312
222 220 210 205 207 209 212 218 210 187 187 180 177 184 180 180 179 139 105 91 173 169 206 234 219 212 214 233 255 272 266 257 250 262 271 272 283 283 282 279 279 282 285 274
201 201 198 200 208 217 225 222 209 187 183 188 198 202 194 186 169 169 196 228 232 218 176 152 191 228 217 227 264 254 265 269 267 267 269 267 264 273 282 286 293 298 299 296
180 186 186 185 197 207 209 201 191 181 190 195 193 190 191 187 179 193 217 239 259 322 326 246 225 232 220 203 247 252 255 259 262 263 263 263 268 279 287 294 300 301 296 294
200 192 181 182 193 203 201 199 192 184 187 193 192 195 202 208 210 223 237 243 223 275 261 209 229 238 241 253 246 254 256 263 269 274 275 276 280 283 286 290 292 290 288 289
217 198 188 191 196 195 192 196 194 188 188 193 197 198 208 218 224 236 247 268 232 177 239 232 234 74 311 267 250 265 271 271 271 273 273 278 279 281 286 291 290 291 293 297
227 215 202 198 193 188 195 204 201 196 198 203 205 209 223 237 250 251 250 223 208 205 248 280 75 121 252 253 262 268 274 280 286 287 287 288 289 292 294 294 295 296 298 300
227 215 207 198 197 203 212 212 205 205 210 218 215 215 226 227 232 243 263 140 173 222 245 117 156 209 245 254 270 278 282 285 288 294 298 295 292 290 290 291 292 295 297 297
226 217 208 214 219 219 215 214 207 207 216 221 215 207 215 219 226 226 230 204 181 218 235 164 191 234 251 266 271 277 281 296 308 304 299 300 298 297 296 297 300 300 300 300
225 219 208 220 225 224 226 226 224 227 232 218 203 193 186 183 185 194 206 203 203 227 248 232 219 231 249 263 272 282 288 282 276 281 300 302 302 305 306 306 306 306 306 308
217 207 204 212 209 207 209 210 217 233 249 253 227 198 193 199 200 206 226 223 214 225 233 242 244 245 255 265 276 287 293 296 296 296 299 302 301 299 298 295 300 306 310 312